RAAVANA-1 (44329 NORAD) Tracking and Keplerian Element Data

This shows tracking and keplerian element data for the satellite.

Feedback or suggestion? Click here.




ElementValue
Catalog44329
NameRAAVANA-1
Epoch Orbit13120
Epoch Day275.68501001
Epoch Year2021
RAAN82.5337
Inclination51.6173
Eccentricity0.0011342
Argument of Perigee297.1206
Mean Anonmoly62.8659
Mean Motion16.28919678
Decay Rate0.04382427
L11 44329U 98067QE 21275.68501001 .04382427 12114-4 10133-2 0 9993
L22 44329 51.6173 82.5337 0011342 297.1206 62.8659 16.28919678131203



Live tracking and technical data element details for RAAVANA-1 (NORAD 44329). RAAVANA-1 can be tracked NOW for your location showing map with azimuth and elevation plus other details from your city location.







IsCatalogInMostPopularTable: catalog: 44329, numindb: 271
Update: records affected: 1



GetName: 44329 RAAVANA-1

Hit Count: updated at: Thu, 23 Jan 2025 17:21:10 GMT